• In Österreich
  • Länderverzeichnis
  • Für 7 Tage
  • Wassertemperatur
  • Satellitenkarten
  • Wetterkarte
  • News
  • Widgets
  • user-avatar
    Anmelden

    Stündliche Wetter Avignon

    Heute, 20 Januar, Samstag

    Zeit Temperatur Niederschläge Wind Luftdruck Luftfeuchtigkeit
    00:00 +6°C° 0 mm 4 m/S 762 mmHg 75%
    01:00 +5°C° 0 mm 4 m/S 762 mmHg 76%
    02:00 +5°C° 0 mm 4 m/S 762 mmHg 76%
    03:00 +4°C° 0 mm 3 m/S 762 mmHg 77%
    04:00 +4°C° 0 mm 3 m/S 762 mmHg 77%
    05:00 +4°C° 0 mm 3 m/S 762 mmHg 77%
    06:00 +4°C° 0 mm 3 m/S 762 mmHg 74%
    07:00 +6°C° 0 mm 2 m/S 762 mmHg 72%
    08:00 +6°C° 0 mm 2 m/S 761 mmHg 70%
    09:00 +7°C° 0 mm 2 m/S 761 mmHg 67%
    10:00 +7°C° 0,3 mm 2 m/S 760 mmHg 69%
    11:00 +8°C° 0,3 mm 2 m/S 760 mmHg 70%
    12:00 +7°C° 0 mm 2 m/S 759 mmHg 75%
    13:00 +8°C° 0,8 mm 3 m/S 758 mmHg 77%
    14:00 +8°C° 0,8 mm 3 m/S 758 mmHg 80%
    15:00 +7°C° 0,8 mm 4 m/S 757 mmHg 82%
    16:00 +7°C° 0,4 mm 4 m/S 757 mmHg 84%
    17:00 +8°C° 0,4 mm 3 m/S 757 mmHg 86%
    18:00 +8°C° 0,4 mm 3 m/S 756 mmHg 88%
    19:00 +8°C° 0,2 mm 3 m/S 756 mmHg 89%
    20:00 +8°C° 0,2 mm 3 m/S 756 mmHg 89%
    21:00 +8°C° 0,2 mm 3 m/S 756 mmHg 90%
    22:00 +8°C° 0,1 mm 3 m/S 756 mmHg 90%
    23:00 +8°C° 0,1 mm 3 m/S 756 mmHg 91%

    Morgen, 21 Januar, Sonntag

    Zeit Temperatur Niederschläge Wind Luftdruck Luftfeuchtigkeit
    00:00 +8°C° 0,1 mm 3 m/S 756 mmHg 91%
    01:00 +9°C° 0 mm 3 m/S 756 mmHg 91%
    02:00 +9°C° 0 mm 3 m/S 756 mmHg 90%
    03:00 +9°C° 0 mm 3 m/S 756 mmHg 90%
    04:00 +8°C° 0 mm 4 m/S 757 mmHg 87%
    05:00 +8°C° 0 mm 4 m/S 757 mmHg 85%
    06:00 +8°C° 0 mm 4 m/S 758 mmHg 83%
    07:00 +9°C° 0 mm 5 m/S 758 mmHg 79%
    08:00 +9°C° 0 mm 6 m/S 759 mmHg 75%
    09:00 +10°C° 0 mm 6 m/S 759 mmHg 71%
    10:00 +11°C° 0 mm 7 m/S 759 mmHg 68%
    11:00 +12°C° 0 mm 7 m/S 759 mmHg 65%
    12:00 +12°C° 0 mm 7 m/S 759 mmHg 62%
    13:00 +12°C° 0 mm 7 m/S 759 mmHg 63%
    14:00 +13°C° 0 mm 6 m/S 759 mmHg 64%
    15:00 +13°C° 0 mm 6 m/S 759 mmHg 65%
    16:00 +13°C° 0 mm 5 m/S 760 mmHg 68%
    17:00 +12°C° 0 mm 5 m/S 760 mmHg 70%
    18:00 +11°C° 0 mm 4 m/S 761 mmHg 73%
    19:00 +11°C° 0 mm 4 m/S 761 mmHg 75%
    20:00 +11°C° 0 mm 3 m/S 762 mmHg 76%
    21:00 +11°C° 0 mm 3 m/S 762 mmHg 77%
    22:00 +11°C° 0 mm 3 m/S 762 mmHg 79%
    23:00 +11°C° 0 mm 3 m/S 762 mmHg 81%

    übermorgen, 22 Januar, Montag

    Zeit Temperatur Niederschläge Wind Luftdruck Luftfeuchtigkeit
    00:00 +11°C° 0 mm 3 m/S 762 mmHg 83%
    01:00 +10°C° 0 mm 3 m/S 762 mmHg 83%
    02:00 +10°C° 0 mm 3 m/S 762 mmHg 84%
    03:00 +10°C° 0 mm 3 m/S 762 mmHg 85%
    04:00 +10°C° 0 mm 3 m/S 762 mmHg 85%
    05:00 +10°C° 0 mm 3 m/S 762 mmHg 85%
    06:00 +10°C° 0 mm 3 m/S 761 mmHg 85%
    07:00 +11°C° 0 mm 3 m/S 761 mmHg 83%
    08:00 +12°C° 0 mm 3 m/S 762 mmHg 81%
    09:00 +13°C° 0 mm 4 m/S 762 mmHg 79%
    10:00 +14°C° 0 mm 4 m/S 762 mmHg 74%
    11:00 +16°C° 0 mm 5 m/S 762 mmHg 69%
    12:00 +19°C° 0 mm 6 m/S 761 mmHg 64%
    13:00 +17°C° 0 mm 6 m/S 762 mmHg 64%
    14:00 +17°C° 0 mm 6 m/S 762 mmHg 65%
    15:00 +17°C° 0 mm 6 m/S 762 mmHg 65%
    16:00 +16°C° 0 mm 5 m/S 762 mmHg 68%
    17:00 +15°C° 0 mm 4 m/S 762 mmHg 71%
    18:00 +14°C° 0 mm 4 m/S 763 mmHg 74%
    19:00 +13°C° 0 mm 4 m/S 763 mmHg 75%
    20:00 +13°C° 0 mm 4 m/S 763 mmHg 76%
    21:00 +12°C° 0 mm 4 m/S 763 mmHg 77%
    22:00 +12°C° 0 mm 4 m/S 763 mmHg 77%
    23:00 +12°C° 0 mm 4 m/S 763 mmHg 78%

    23 Januar, Dienstag

    Zeit Temperatur Niederschläge Wind Luftdruck Luftfeuchtigkeit
    00:00 +12°C° 0 mm 4 m/S 763 mmHg 78%
    01:00 +12°C° 0 mm 4 m/S 763 mmHg 80%
    02:00 +12°C° 0 mm 4 m/S 763 mmHg 82%
    03:00 +12°C° 0 mm 4 m/S 763 mmHg 84%
    04:00 +11°C° 0 mm 4 m/S 763 mmHg 84%
    05:00 +11°C° 0 mm 4 m/S 764 mmHg 85%
    06:00 +11°C° 0 mm 4 m/S 764 mmHg 85%
    07:00 +12°C° 0 mm 4 m/S 764 mmHg 82%
    08:00 +13°C° 0 mm 4 m/S 765 mmHg 79%
    09:00 +13°C° 0 mm 4 m/S 765 mmHg 76%
    10:00 +14°C° 0 mm 5 m/S 765 mmHg 71%
    11:00 +15°C° 0 mm 5 m/S 765 mmHg 66%
    12:00 +17°C° 0 mm 5 m/S 765 mmHg 61%
    13:00 +16°C° 0 mm 5 m/S 765 mmHg 61%
    14:00 +17°C° 0 mm 4 m/S 765 mmHg 62%
    15:00 +17°C° 0 mm 4 m/S 765 mmHg 63%
    16:00 +16°C° 0 mm 3 m/S 766 mmHg 68%
    17:00 +13°C° 0 mm 3 m/S 766 mmHg 74%
    18:00 +13°C° 0 mm 2 m/S 766 mmHg 79%
    19:00 +12°C° 0 mm 2 m/S 767 mmHg 80%
    20:00 +12°C° 0 mm 2 m/S 767 mmHg 81%
    21:00 +10°C° 0 mm 2 m/S 768 mmHg 82%
    22:00 +10°C° 0 mm 2 m/S 768 mmHg 81%
    23:00 +10°C° 0 mm 2 m/S 768 mmHg 80%

    24 Januar, Mittwoch

    Zeit Temperatur Niederschläge Wind Luftdruck Luftfeuchtigkeit
    00:00 +10°C° 0 mm 2 m/S 768 mmHg 80%
    01:00 +10°C° 0 mm 2 m/S 768 mmHg 79%
    02:00 +10°C° 0 mm 1 m/S 768 mmHg 79%
    03:00 +10°C° 0 mm 1 m/S 768 mmHg 78%
    04:00 +10°C° 0 mm 1 m/S 768 mmHg 78%
    05:00 +10°C° 0 mm 1 m/S 768 mmHg 78%
    06:00 +10°C° 0 mm 1 m/S 768 mmHg 78%
    07:00 +10°C° 0 mm 1 m/S 768 mmHg 76%
    08:00 +11°C° 0 mm 1 m/S 768 mmHg 74%
    09:00 +12°C° 0 mm 1 m/S 769 mmHg 72%
    10:00 +13°C° 0 mm 2 m/S 768 mmHg 69%
    11:00 +15°C° 0 mm 2 m/S 768 mmHg 66%
    12:00 +16°C° 0 mm 2 m/S 768 mmHg 63%
    13:00 +16°C° 0 mm 3 m/S 767 mmHg 63%
    14:00 +16°C° 0 mm 3 m/S 767 mmHg 63%
    15:00 +16°C° 0 mm 3 m/S 767 mmHg 64%
    16:00 +14°C° 0 mm 3 m/S 767 mmHg 70%
    17:00 +13°C° 0 mm 2 m/S 767 mmHg 76%
    18:00 +12°C° 0 mm 2 m/S 767 mmHg 81%
    19:00 +12°C° 0 mm 2 m/S 767 mmHg 83%
    20:00 +10°C° 0 mm 2 m/S 767 mmHg 84%
    21:00 +10°C° 0 mm 2 m/S 767 mmHg 85%
    22:00 +10°C° 0 mm 2 m/S 767 mmHg 84%
    23:00 +10°C° 0 mm 3 m/S 767 mmHg 84%

    25 Januar, Donnerstag

    Zeit Temperatur Niederschläge Wind Luftdruck Luftfeuchtigkeit
    00:00 +10°C° 0 mm 3 m/S 766 mmHg 83%
    01:00 +10°C° 0 mm 3 m/S 766 mmHg 83%
    02:00 +10°C° 0 mm 3 m/S 766 mmHg 82%
    03:00 +10°C° 0 mm 4 m/S 765 mmHg 81%
    04:00 +10°C° 0 mm 4 m/S 765 mmHg 81%
    05:00 +10°C° 0 mm 4 m/S 765 mmHg 81%
    06:00 +10°C° 0 mm 4 m/S 764 mmHg 81%
    07:00 +10°C° 0,1 mm 4 m/S 764 mmHg 81%
    08:00 +11°C° 0,1 mm 4 m/S 764 mmHg 80%
    09:00 +11°C° 0,1 mm 4 m/S 764 mmHg 80%
    10:00 +12°C° 0,2 mm 4 m/S 764 mmHg 80%
    11:00 +12°C° 0,2 mm 4 m/S 763 mmHg 80%
    12:00 +13°C° 0,2 mm 5 m/S 763 mmHg 80%
    13:00 +13°C° 0,4 mm 5 m/S 763 mmHg 81%
    14:00 +13°C° 0,4 mm 5 m/S 762 mmHg 82%
    15:00 +13°C° 0,4 mm 5 m/S 762 mmHg 82%
    16:00 +13°C° 0,4 mm 5 m/S 762 mmHg 84%
    17:00 +12°C° 0,4 mm 4 m/S 762 mmHg 86%
    18:00 +12°C° 0,4 mm 4 m/S 762 mmHg 87%
    19:00 +12°C° 0,4 mm 4 m/S 762 mmHg 88%
    20:00 +12°C° 0,4 mm 4 m/S 762 mmHg 89%
    21:00 +12°C° 0,4 mm 3 m/S 762 mmHg 90%
    22:00 +11°C° 0,3 mm 3 m/S 762 mmHg 90%
    23:00 +11°C° 0,3 mm 3 m/S 762 mmHg 91%
    Mehr zeigen